contact:dominique.lefevre@mio.osupytheas.fr, maurice.libes@osupytheas.fr, didier.mallarino@osupytheas.fr
Project:EMSO http://www.emso-fr.org/EMSO-France
Depth: 2436.0 m
Title:EMSO Ligure Ouest : Data MII capteur MICROCAT
DateTime_Computer,Latitude,Longitude,Temperature,Conductivity,Pressure,DateTime_Instrument
DateTime_Computer,Latitude,Longitude,degC,S m-1,dbar,DateTime_Instrument
2020-12-26T00:00:39Z,42.805,6.029,13.3009,4.60006,2470.063,2020-12-26T02:01:38Z
2020-12-26T00:03:42Z,42.805,6.029,13.3006,4.60007,2470.04,2020-12-26T02:04:42Z
2020-12-26T00:06:45Z,42.805,6.029,13.3004,4.60008,2470.053,2020-12-26T02:07:45Z
2020-12-26T00:09:48Z,42.805,6.029,13.3006,4.60014,2470.077,2020-12-26T02:10:48Z
2020-12-26T00:12:51Z,42.805,6.029,13.3023,4.60010,2470.053,2020-12-26T02:13:51Z
2020-12-26T00:15:54Z,42.805,6.029,13.3015,4.60011,2470.063,2020-12-26T02:16:54Z
2020-12-26T00:18:57Z,42.805,6.029,13.3004,4.60018,2470.053,2020-12-26T02:19:57Z
2020-12-26T00:22:01Z,42.805,6.029,13.2996,4.60015,2470.053,2020-12-26T02:23:00Z
2020-12-26T00:25:04Z,42.805,6.029,13.3003,4.60002,2470.053,2020-12-26T02:26:03Z
2020-12-26T00:28:07Z,42.805,6.029,13.3019,4.60032,2470.063,2020-12-26T02:29:07Z
2020-12-26T00:31:10Z,42.805,6.029,13.3004,4.60022,2470.053,2020-12-26T02:32:10Z
2020-12-26T00:34:13Z,42.805,6.029,13.3013,4.60003,2470.077,2020-12-26T02:35:13Z
2020-12-26T00:37:16Z,42.805,6.029,13.3004,4.60021,2470.063,2020-12-26T02:38:16Z
2020-12-26T00:40:19Z,42.805,6.029,13.3003,4.60012,2470.063,2020-12-26T02:41:19Z
2020-12-26T00:43:22Z,42.805,6.029,13.3011,4.60043,2470.077,2020-12-26T02:44:22Z
2020-12-26T00:46:25Z,42.805,6.029,13.3025,4.60006,2470.1,2020-12-26T02:47:25Z
2020-12-26T00:49:29Z,42.805,6.029,13.3011,4.60032,2470.04,2020-12-26T02:50:28Z
2020-12-26T00:52:32Z,42.805,6.029,13.3010,4.60012,2470.063,2020-12-26T02:53:32Z
2020-12-26T00:55:35Z,42.805,6.029,13.3011,4.60031,2470.077,2020-12-26T02:56:35Z
2020-12-26T00:58:38Z,42.805,6.029,13.3005,4.60006,2470.04,2020-12-26T02:59:38Z
2020-12-26T01:01:41Z,42.805,6.029,13.3007,4.60026,2470.053,2020-12-26T03:02:41Z
2020-12-26T01:04:44Z,42.805,6.029,13.3022,4.60017,2470.063,2020-12-26T03:05:44Z
2020-12-26T01:07:47Z,42.805,6.029,13.3012,4.60020,2470.063,2020-12-26T03:08:47Z
2020-12-26T01:10:50Z,42.805,6.029,13.3023,4.60026,2470.077,2020-12-26T03:11:50Z
2020-12-26T01:13:54Z,42.805,6.029,13.3019,4.60011,2470.087,2020-12-26T03:14:53Z
2020-12-26T01:16:57Z,42.805,6.029,13.3004,4.60024,2470.1,2020-12-26T03:17:57Z
2020-12-26T01:20:00Z,42.805,6.029,13.3005,4.60009,2470.077,2020-12-26T03:21:00Z
2020-12-26T01:23:03Z,42.805,6.029,13.3004,4.60024,2470.063,2020-12-26T03:24:03Z
2020-12-26T01:26:06Z,42.805,6.029,13.3002,4.60004,2470.063,2020-12-26T03:27:06Z
2020-12-26T01:29:09Z,42.805,6.029,13.3009,4.60011,2470.1,2020-12-26T03:30:09Z
2020-12-26T01:32:12Z,42.805,6.029,13.2995,4.60011,2470.1,2020-12-26T03:33:12Z
2020-12-26T01:35:15Z,42.805,6.029,13.3013,4.60009,2470.063,2020-12-26T03:36:15Z
2020-12-26T01:38:19Z,42.805,6.029,13.3006,4.60020,2470.087,2020-12-26T03:39:18Z
2020-12-26T01:41:22Z,42.805,6.029,13.3009,4.60008,2470.1,2020-12-26T03:42:21Z
2020-12-26T01:44:25Z,42.805,6.029,13.2995,4.60012,2470.087,2020-12-26T03:45:25Z
2020-12-26T01:47:28Z,42.805,6.029,13.2998,4.60004,2470.087,2020-12-26T03:48:28Z
2020-12-26T01:50:31Z,42.805,6.029,13.3001,4.60006,2470.077,2020-12-26T03:51:31Z
2020-12-26T01:53:34Z,42.805,6.029,13.3000,4.60023,2470.077,2020-12-26T03:54:34Z
2020-12-26T01:56:37Z,42.805,6.029,13.3009,4.60018,2470.11,2020-12-26T03:57:37Z
2020-12-26T01:59:40Z,42.805,6.029,13.3018,4.60022,2470.124,2020-12-26T04:00:40Z
2020-12-26T02:02:44Z,42.805,6.029,13.3004,4.60022,2470.087,2020-12-26T04:03:43Z
2020-12-26T02:05:47Z,42.805,6.029,13.3000,4.60017,2470.11,2020-12-26T04:06:46Z
2020-12-26T02:08:50Z,42.805,6.029,13.3028,4.60027,2470.124,2020-12-26T04:09:50Z
2020-12-26T02:11:53Z,42.805,6.029,13.3007,4.60016,2470.087,2020-12-26T04:12:53Z
2020-12-26T02:14:56Z,42.805,6.029,13.3011,4.60011,2470.087,2020-12-26T04:15:56Z
2020-12-26T02:17:59Z,42.805,6.029,13.3003,4.60025,2470.11,2020-12-26T04:18:59Z
2020-12-26T02:21:02Z,42.805,6.029,13.2995,4.60014,2470.147,2020-12-26T04:22:02Z
2020-12-26T02:24:05Z,42.805,6.029,13.3015,4.60026,2470.1,2020-12-26T04:25:05Z
2020-12-26T02:27:09Z,42.805,6.029,13.3013,4.60019,2470.1,2020-12-26T04:28:08Z
2020-12-26T02:30:12Z,42.805,6.029,13.3012,4.60036,2470.124,2020-12-26T04:31:11Z
2020-12-26T02:33:15Z,42.805,6.029,13.3021,4.60029,2470.147,2020-12-26T04:34:15Z
2020-12-26T02:36:18Z,42.805,6.029,13.3019,4.60009,2470.11,2020-12-26T04:37:18Z
2020-12-26T02:39:21Z,42.805,6.029,13.3002,4.60035,2470.11,2020-12-26T04:40:21Z
2020-12-26T02:42:24Z,42.805,6.029,13.3006,4.60027,2470.124,2020-12-26T04:43:24Z
2020-12-26T02:45:27Z,42.805,6.029,13.3015,4.60026,2470.133,2020-12-26T04:46:27Z
2020-12-26T02:48:30Z,42.805,6.029,13.3002,4.60022,2470.124,2020-12-26T04:49:30Z
2020-12-26T02:51:34Z,42.805,6.029,13.3034,4.60021,2470.147,2020-12-26T04:52:33Z
2020-12-26T02:54:37Z,42.805,6.029,13.3015,4.60009,2470.124,2020-12-26T04:55:36Z
2020-12-26T02:57:40Z,42.805,6.029,13.3006,4.60026,2470.133,2020-12-26T04:58:40Z
2020-12-26T03:00:43Z,42.805,6.029,13.3009,4.60035,2470.133,2020-12-26T05:01:43Z
2020-12-26T03:03:46Z,42.805,6.029,13.3009,4.60029,2470.124,2020-12-26T05:04:46Z
2020-12-26T03:06:49Z,42.805,6.029,13.3035,4.60031,2470.171,2020-12-26T05:07:49Z
2020-12-26T03:09:52Z,42.805,6.029,13.3004,4.60039,2470.171,2020-12-26T05:10:52Z
2020-12-26T03:12:55Z,42.805,6.029,13.3004,4.60006,2470.147,2020-12-26T05:13:55Z
2020-12-26T03:15:58Z,42.805,6.029,13.3011,4.60011,2470.147,2020-12-26T05:16:58Z
2020-12-26T03:19:02Z,42.805,6.029,13.3011,4.60009,2470.156,2020-12-26T05:20:01Z
2020-12-26T03:22:05Z,42.805,6.029,13.3010,4.60008,2470.11,2020-12-26T05:23:05Z
2020-12-26T03:25:08Z,42.805,6.029,13.3015,4.60011,2470.156,2020-12-26T05:26:08Z
2020-12-26T03:28:11Z,42.805,6.029,13.3009,4.60009,2470.133,2020-12-26T05:29:11Z
2020-12-26T03:31:14Z,42.805,6.029,13.3021,4.60015,2470.156,2020-12-26T05:32:14Z
2020-12-26T03:34:17Z,42.805,6.029,13.3021,4.60015,2470.147,2020-12-26T05:35:17Z
2020-12-26T03:37:20Z,42.805,6.029,13.3014,4.60012,2470.133,2020-12-26T05:38:20Z
2020-12-26T03:40:23Z,42.805,6.029,13.3013,4.60031,2470.194,2020-12-26T05:41:23Z
2020-12-26T03:43:27Z,42.805,6.029,13.3011,4.60006,2470.147,2020-12-26T05:44:26Z
2020-12-26T03:46:30Z,42.805,6.029,13.3004,4.60007,2470.171,2020-12-26T05:47:30Z
2020-12-26T03:49:33Z,42.805,6.029,13.3015,4.60010,2470.147,2020-12-26T05:50:33Z
2020-12-26T03:52:36Z,42.805,6.029,13.3007,4.60017,2470.133,2020-12-26T05:53:36Z
2020-12-26T03:55:39Z,42.805,6.029,13.3006,4.60024,2470.217,2020-12-26T05:56:39Z
2020-12-26T03:58:42Z,42.805,6.029,13.3011,4.60019,2470.194,2020-12-26T05:59:42Z
2020-12-26T04:01:45Z,42.805,6.029,13.3006,4.60010,2470.18,2020-12-26T06:02:45Z
2020-12-26T04:04:48Z,42.805,6.029,13.3024,4.60008,2470.147,2020-12-26T06:05:48Z
2020-12-26T04:07:52Z,42.805,6.029,13.3000,4.60050,2470.147,2020-12-26T06:08:51Z
2020-12-26T04:10:55Z,42.805,6.029,13.3009,4.60005,2470.171,2020-12-26T06:11:54Z
2020-12-26T04:13:58Z,42.805,6.029,13.3043,4.60019,2470.171,2020-12-26T06:14:58Z
2020-12-26T04:17:01Z,42.805,6.029,13.3022,4.60009,2470.124,2020-12-26T06:18:01Z
2020-12-26T04:20:04Z,42.805,6.029,13.3008,4.60007,2470.147,2020-12-26T06:21:04Z
2020-12-26T04:23:07Z,42.805,6.029,13.3010,4.60015,2470.147,2020-12-26T06:24:07Z
2020-12-26T04:26:10Z,42.805,6.029,13.3013,4.60009,2470.133,2020-12-26T06:27:10Z
2020-12-26T04:29:13Z,42.805,6.029,13.3011,4.60017,2470.147,2020-12-26T06:30:13Z
2020-12-26T04:32:17Z,42.805,6.029,13.3017,4.60013,2470.156,2020-12-26T06:33:16Z
2020-12-26T04:35:20Z,42.805,6.029,13.3020,4.60016,2470.156,2020-12-26T06:36:19Z
2020-12-26T04:38:23Z,42.805,6.029,13.3014,4.60013,2470.147,2020-12-26T06:39:23Z
2020-12-26T04:41:26Z,42.805,6.029,13.3009,4.60011,2470.147,2020-12-26T06:42:26Z
2020-12-26T04:44:29Z,42.805,6.029,13.3011,4.60019,2470.156,2020-12-26T06:45:29Z
2020-12-26T04:47:32Z,42.805,6.029,13.3024,4.60017,2470.208,2020-12-26T06:48:32Z
2020-12-26T04:50:35Z,42.805,6.029,13.3009,4.60012,2470.133,2020-12-26T06:51:35Z
2020-12-26T04:53:38Z,42.805,6.029,13.3015,4.60009,2470.156,2020-12-26T06:54:38Z
2020-12-26T04:56:42Z,42.805,6.029,13.3020,4.60014,2470.147,2020-12-26T06:57:41Z
2020-12-26T04:59:45Z,42.805,6.029,13.3019,4.60015,2470.156,2020-12-26T07:00:44Z
2020-12-26T05:02:48Z,42.805,6.029,13.3017,4.60020,2470.133,2020-12-26T07:03:48Z
2020-12-26T05:05:51Z,42.805,6.029,13.3028,4.60014,2470.133,2020-12-26T07:06:51Z
2020-12-26T05:08:54Z,42.805,6.029,13.3024,4.60008,2470.156,2020-12-26T07:09:54Z
2020-12-26T05:11:57Z,42.805,6.029,13.3019,4.60015,2470.171,2020-12-26T07:12:57Z
2020-12-26T05:15:00Z,42.805,6.029,13.3018,4.60011,2470.147,2020-12-26T07:16:00Z
2020-12-26T05:18:03Z,42.805,6.029,13.3011,4.60024,2470.156,2020-12-26T07:19:03Z
2020-12-26T05:21:06Z,42.805,6.029,13.3020,4.60020,2470.156,2020-12-26T07:22:06Z
2020-12-26T05:24:10Z,42.805,6.029,13.3029,4.60025,2470.156,2020-12-26T07:25:09Z
2020-12-26T05:27:13Z,42.805,6.029,13.3019,4.60020,2470.171,2020-12-26T07:28:13Z
2020-12-26T05:30:16Z,42.805,6.029,13.3029,4.60031,2470.156,2020-12-26T07:31:16Z
2020-12-26T05:33:19Z,42.805,6.029,13.3026,4.60016,2470.156,2020-12-26T07:34:19Z
2020-12-26T05:36:22Z,42.805,6.029,13.3015,4.60021,2470.156,2020-12-26T07:37:22Z
2020-12-26T05:39:25Z,42.805,6.029,13.3029,4.60016,2470.147,2020-12-26T07:40:25Z
2020-12-26T05:42:28Z,42.805,6.029,13.3019,4.60011,2470.194,2020-12-26T07:43:28Z
2020-12-26T05:45:31Z,42.805,6.029,13.3013,4.60015,2470.156,2020-12-26T07:46:31Z
2020-12-26T05:48:35Z,42.805,6.029,13.3034,4.60021,2470.171,2020-12-26T07:49:34Z
2020-12-26T05:51:38Z,42.805,6.029,13.3031,4.60025,2470.171,2020-12-26T07:52:38Z
2020-12-26T05:54:41Z,42.805,6.029,13.3018,4.60021,2470.18,2020-12-26T07:55:41Z
2020-12-26T05:57:44Z,42.805,6.029,13.3015,4.60017,2470.184,2020-12-26T07:58:44Z
2020-12-26T06:00:47Z,42.805,6.029,13.3026,4.60016,2470.147,2020-12-26T08:01:47Z
2020-12-26T06:03:50Z,42.805,6.029,13.3046,4.60007,2470.171,2020-12-26T08:04:50Z
2020-12-26T06:06:53Z,42.805,6.029,13.3018,4.60014,2470.171,2020-12-26T08:07:53Z
2020-12-26T06:09:56Z,42.805,6.029,13.3021,4.60009,2470.156,2020-12-26T08:10:56Z
2020-12-26T06:13:00Z,42.805,6.029,13.3026,4.60003,2470.133,2020-12-26T08:13:59Z
2020-12-26T06:16:03Z,42.805,6.029,13.3009,4.60014,2470.147,2020-12-26T08:17:03Z
2020-12-26T06:19:06Z,42.805,6.029,13.3015,4.60010,2470.18,2020-12-26T08:20:06Z
2020-12-26T06:22:09Z,42.805,6.029,13.3019,4.60011,2470.171,2020-12-26T08:23:09Z
2020-12-26T06:25:12Z,42.805,6.029,13.3022,4.60013,2470.171,2020-12-26T08:26:12Z
2020-12-26T06:28:15Z,42.805,6.029,13.3021,4.60021,2470.156,2020-12-26T08:29:15Z
2020-12-26T06:31:18Z,42.805,6.029,13.3034,4.60014,2470.133,2020-12-26T08:32:18Z
2020-12-26T06:34:21Z,42.805,6.029,13.3024,4.60013,2470.171,2020-12-26T08:35:21Z
2020-12-26T06:37:25Z,42.805,6.029,13.3028,4.60016,2470.18,2020-12-26T08:38:24Z
2020-12-26T06:40:28Z,42.805,6.029,13.3018,4.60011,2470.133,2020-12-26T08:41:27Z
2020-12-26T06:43:31Z,42.805,6.029,13.3016,4.60021,2470.194,2020-12-26T08:44:31Z
2020-12-26T06:46:34Z,42.805,6.029,13.3016,4.60010,2470.147,2020-12-26T08:47:34Z
2020-12-26T06:49:37Z,42.805,6.029,13.3009,4.60035,2470.171,2020-12-26T08:50:37Z
2020-12-26T06:52:40Z,42.805,6.029,13.3006,4.60016,2470.194,2020-12-26T08:53:40Z
2020-12-26T06:55:43Z,42.805,6.029,13.3021,4.60006,2470.133,2020-12-26T08:56:43Z
2020-12-26T06:58:46Z,42.805,6.029,13.3013,4.60019,2470.11,2020-12-26T08:59:46Z
2020-12-26T07:01:50Z,42.805,6.029,13.3019,4.60006,2470.156,2020-12-26T09:02:49Z
2020-12-26T07:04:53Z,42.805,6.029,13.3010,4.60014,2470.133,2020-12-26T09:05:52Z
2020-12-26T07:07:56Z,42.805,6.029,13.3010,4.60016,2470.133,2020-12-26T09:08:56Z
2020-12-26T07:10:59Z,42.805,6.029,13.2993,4.60011,2470.194,2020-12-26T09:11:59Z
2020-12-26T07:14:02Z,42.805,6.029,13.3011,4.59999,2470.156,2020-12-26T09:15:02Z
2020-12-26T07:17:05Z,42.805,6.029,13.3033,4.60009,2470.171,2020-12-26T09:18:05Z
2020-12-26T07:20:08Z,42.805,6.029,13.3009,4.60009,2470.156,2020-12-26T09:21:08Z
2020-12-26T07:23:11Z,42.805,6.029,13.3014,4.60015,2470.147,2020-12-26T09:24:11Z
2020-12-26T07:26:15Z,42.805,6.029,13.3022,4.60019,2470.147,2020-12-26T09:27:14Z
2020-12-26T07:29:18Z,42.805,6.029,13.3004,4.60011,2470.156,2020-12-26T09:30:17Z
2020-12-26T07:32:21Z,42.805,6.029,13.3001,4.60003,2470.11,2020-12-26T09:33:21Z
2020-12-26T07:35:24Z,42.805,6.029,13.3001,4.60021,2470.133,2020-12-26T09:36:24Z
2020-12-26T07:38:27Z,42.805,6.029,13.2998,4.60004,2470.147,2020-12-26T09:39:27Z
2020-12-26T07:41:30Z,42.805,6.029,13.3006,4.60006,2470.143,2020-12-26T09:42:30Z
2020-12-26T07:44:33Z,42.805,6.029,13.3018,4.60016,2470.147,2020-12-26T09:45:33Z
2020-12-26T07:47:36Z,42.805,6.029,13.3013,4.60017,2470.11,2020-12-26T09:48:36Z
2020-12-26T07:50:40Z,42.805,6.029,13.3016,4.60019,2470.147,2020-12-26T09:51:39Z
2020-12-26T07:53:43Z,42.805,6.029,13.3014,4.60014,2470.171,2020-12-26T09:54:42Z
2020-12-26T07:56:46Z,42.805,6.029,13.3014,4.60005,2470.124,2020-12-26T09:57:46Z
2020-12-26T07:59:49Z,42.805,6.029,13.3006,4.60014,2470.156,2020-12-26T10:00:49Z
2020-12-26T08:02:52Z,42.805,6.029,13.3007,4.60006,2470.147,2020-12-26T10:03:52Z
2020-12-26T08:05:55Z,42.805,6.029,13.3019,4.60017,2470.147,2020-12-26T10:06:55Z
2020-12-26T08:08:58Z,42.805,6.029,13.3026,4.60006,2470.087,2020-12-26T10:09:58Z
2020-12-26T08:12:01Z,42.805,6.029,13.3013,4.60015,2470.147,2020-12-26T10:13:01Z
2020-12-26T08:15:05Z,42.805,6.029,13.3014,4.60009,2470.124,2020-12-26T10:16:04Z
2020-12-26T08:18:08Z,42.805,6.029,13.3015,4.60022,2470.124,2020-12-26T10:19:07Z
2020-12-26T08:21:11Z,42.805,6.029,13.3014,4.60015,2470.147,2020-12-26T10:22:11Z
2020-12-26T08:24:14Z,42.805,6.029,13.3016,4.60006,2470.124,2020-12-26T10:25:14Z
2020-12-26T08:27:17Z,42.805,6.029,13.3016,4.60009,2470.11,2020-12-26T10:28:17Z
2020-12-26T08:30:20Z,42.805,6.029,13.3021,4.60025,2470.11,2020-12-26T10:31:20Z
2020-12-26T08:33:23Z,42.805,6.029,13.3002,4.60001,2470.11,2020-12-26T10:34:23Z
2020-12-26T08:36:26Z,42.805,6.029,13.3011,4.60006,2470.11,2020-12-26T10:37:26Z
2020-12-26T08:39:30Z,42.805,6.029,13.3009,4.60004,2470.087,2020-12-26T10:40:29Z
2020-12-26T08:42:33Z,42.805,6.029,13.3011,4.60023,2470.11,2020-12-26T10:43:32Z
2020-12-26T08:45:36Z,42.805,6.029,13.3019,4.60031,2470.133,2020-12-26T10:46:36Z
2020-12-26T08:48:39Z,42.805,6.029,13.3011,4.60007,2470.124,2020-12-26T10:49:39Z
2020-12-26T08:51:42Z,42.805,6.029,13.3031,4.60033,2470.124,2020-12-26T10:52:42Z
2020-12-26T08:54:45Z,42.805,6.029,13.3010,4.60016,2470.124,2020-12-26T10:55:45Z
2020-12-26T08:57:48Z,42.805,6.029,13.3005,4.60021,2470.124,2020-12-26T10:58:48Z
2020-12-26T09:00:51Z,42.805,6.029,13.3000,4.60000,2470.096,2020-12-26T11:01:51Z
2020-12-26T09:03:55Z,42.805,6.029,13.3006,4.60019,2470.1,2020-12-26T11:04:54Z
2020-12-26T09:06:58Z,42.805,6.029,13.3001,4.60014,2470.11,2020-12-26T11:07:57Z
2020-12-26T09:10:01Z,42.805,6.029,13.3037,4.60007,2470.124,2020-12-26T11:11:01Z
2020-12-26T09:13:04Z,42.805,6.029,13.3024,4.60009,2470.124,2020-12-26T11:14:04Z
2020-12-26T09:16:07Z,42.805,6.029,13.3005,4.60014,2470.087,2020-12-26T11:17:07Z
2020-12-26T09:19:10Z,42.805,6.029,13.3000,4.60000,2470.087,2020-12-26T11:20:10Z
2020-12-26T09:22:13Z,42.805,6.029,13.3000,4.60025,2470.087,2020-12-26T11:23:13Z
2020-12-26T09:25:16Z,42.805,6.029,13.2998,4.60022,2470.133,2020-12-26T11:26:16Z
2020-12-26T09:28:20Z,42.805,6.029,13.2994,4.60006,2470.1,2020-12-26T11:29:19Z
2020-12-26T09:31:23Z,42.805,6.029,13.3009,4.60008,2470.1,2020-12-26T11:32:22Z
2020-12-26T09:34:26Z,42.805,6.029,13.3008,4.60002,2470.063,2020-12-26T11:35:26Z
2020-12-26T09:37:29Z,42.805,6.029,13.3006,4.60008,2470.087,2020-12-26T11:38:29Z
2020-12-26T09:40:32Z,42.805,6.029,13.3012,4.60011,2470.1,2020-12-26T11:41:32Z
2020-12-26T09:43:35Z,42.805,6.029,13.3004,4.60019,2470.063,2020-12-26T11:44:35Z
2020-12-26T09:46:38Z,42.805,6.029,13.3018,4.60015,2470.1,2020-12-26T11:47:38Z
2020-12-26T09:49:41Z,42.805,6.029,13.3008,4.60014,2470.063,2020-12-26T11:50:41Z
2020-12-26T09:52:45Z,42.805,6.029,13.3006,4.59997,2470.063,2020-12-26T11:53:44Z
2020-12-26T09:55:48Z,42.805,6.029,13.3014,4.60008,2470.133,2020-12-26T11:56:48Z
2020-12-26T09:58:51Z,42.805,6.029,13.2998,4.60006,2470.087,2020-12-26T11:59:51Z
2020-12-26T10:01:54Z,42.805,6.029,13.2999,4.60002,2470.077,2020-12-26T12:02:54Z
2020-12-26T10:04:57Z,42.805,6.029,13.3003,4.60003,2470.11,2020-12-26T12:05:57Z
2020-12-26T10:08:00Z,42.805,6.029,13.3008,4.60006,2470.063,2020-12-26T12:09:00Z
2020-12-26T10:11:03Z,42.805,6.029,13.3016,4.60009,2470.087,2020-12-26T12:12:03Z
2020-12-26T10:14:06Z,42.805,6.029,13.3009,4.60010,2470.063,2020-12-26T12:15:06Z
2020-12-26T10:17:10Z,42.805,6.029,13.3003,4.60001,2470.087,2020-12-26T12:18:09Z
2020-12-26T10:20:13Z,42.805,6.029,13.3003,4.60006,2470.087,2020-12-26T12:21:13Z
2020-12-26T10:23:16Z,42.805,6.029,13.3006,4.60019,2470.063,2020-12-26T12:24:16Z
2020-12-26T10:26:19Z,42.805,6.029,13.3013,4.60003,2470.087,2020-12-26T12:27:19Z
2020-12-26T10:29:22Z,42.805,6.029,13.3000,4.60009,2470.087,2020-12-26T12:30:22Z
2020-12-26T10:32:25Z,42.805,6.029,13.3014,4.59991,2470.11,2020-12-26T12:33:25Z
2020-12-26T10:35:28Z,42.805,6.029,13.3004,4.59999,2470.077,2020-12-26T12:36:28Z
2020-12-26T10:38:31Z,42.805,6.029,13.2996,4.60009,2470.087,2020-12-26T12:39:31Z
2020-12-26T10:41:35Z,42.805,6.029,13.3000,4.60003,2470.1,2020-12-26T12:42:34Z
2020-12-26T10:44:38Z,42.805,6.029,13.3005,4.60016,2470.087,2020-12-26T12:45:38Z
2020-12-26T10:47:41Z,42.805,6.029,13.3002,4.60025,2470.063,2020-12-26T12:48:41Z
2020-12-26T10:50:44Z,42.805,6.029,13.3012,4.60009,2470.1,2020-12-26T12:51:44Z
2020-12-26T10:53:47Z,42.805,6.029,13.2993,4.60009,2470.063,2020-12-26T12:54:47Z
2020-12-26T10:56:50Z,42.805,6.029,13.2996,4.60010,2470.077,2020-12-26T12:57:50Z
2020-12-26T10:59:53Z,42.805,6.029,13.3004,4.60006,2470.077,2020-12-26T13:00:53Z
2020-12-26T11:02:57Z,42.805,6.029,13.3008,4.60008,2470.077,2020-12-26T13:03:56Z
2020-12-26T11:06:00Z,42.805,6.029,13.2993,4.60034,2470.063,2020-12-26T13:06:59Z
2020-12-26T11:09:03Z,42.805,6.029,13.3001,4.60003,2470.053,2020-12-26T13:10:03Z
2020-12-26T11:12:06Z,42.805,6.029,13.3008,4.60001,2470.087,2020-12-26T13:13:06Z
2020-12-26T11:15:09Z,42.805,6.029,13.3000,4.60006,2470.087,2020-12-26T13:16:09Z
2020-12-26T11:18:12Z,42.805,6.029,13.3004,4.60004,2470.04,2020-12-26T13:19:12Z
2020-12-26T11:21:15Z,42.805,6.029,13.2996,4.60010,2470.026,2020-12-26T13:22:15Z
2020-12-26T11:24:18Z,42.805,6.029,13.3002,4.60003,2470.077,2020-12-26T13:25:18Z
2020-12-26T11:27:22Z,42.805,6.029,13.3006,4.60005,2470.063,2020-12-26T13:28:21Z
2020-12-26T11:30:25Z,42.805,6.029,13.3005,4.60004,2470.087,2020-12-26T13:31:24Z
2020-12-26T11:33:28Z,42.805,6.029,13.2998,4.59996,2470.063,2020-12-26T13:34:28Z
2020-12-26T11:36:31Z,42.805,6.029,13.2993,4.60014,2470.053,2020-12-26T13:37:31Z
2020-12-26T11:39:34Z,42.805,6.029,13.2991,4.60003,2470.077,2020-12-26T13:40:34Z
2020-12-26T11:42:37Z,42.805,6.029,13.2996,4.60001,2470.063,2020-12-26T13:43:37Z
2020-12-26T11:45:40Z,42.805,6.029,13.3013,4.60013,2470.03,2020-12-26T13:46:40Z
2020-12-26T11:48:43Z,42.805,6.029,13.3002,4.60013,2470.087,2020-12-26T13:49:43Z
2020-12-26T11:51:47Z,42.805,6.029,13.3006,4.59996,2470.017,2020-12-26T13:52:46Z
2020-12-26T11:54:50Z,42.805,6.029,13.2996,4.60029,2470.04,2020-12-26T13:55:49Z
2020-12-26T11:57:53Z,42.805,6.029,13.3009,4.60009,2470.017,2020-12-26T13:58:53Z
2020-12-26T12:00:56Z,42.805,6.029,13.2983,4.59998,2470.04,2020-12-26T14:01:56Z
2020-12-26T12:03:59Z,42.805,6.029,13.2993,4.60014,2470.04,2020-12-26T14:04:59Z
2020-12-26T12:07:02Z,42.805,6.029,13.2991,4.60001,2470.04,2020-12-26T14:08:02Z
2020-12-26T12:10:05Z,42.805,6.029,13.2991,4.60007,2470.063,2020-12-26T14:11:05Z
2020-12-26T12:13:08Z,42.805,6.029,13.2993,4.60021,2470.053,2020-12-26T14:14:08Z
2020-12-26T12:16:12Z,42.805,6.029,13.2998,4.59997,2470.063,2020-12-26T14:17:11Z
2020-12-26T12:19:15Z,42.805,6.029,13.2989,4.60002,2470.077,2020-12-26T14:20:15Z
2020-12-26T12:22:18Z,42.805,6.029,13.3004,4.59997,2470.077,2020-12-26T14:23:18Z
2020-12-26T12:25:21Z,42.805,6.029,13.3007,4.59995,2470.063,2020-12-26T14:26:21Z
2020-12-26T12:28:24Z,42.805,6.029,13.3000,4.60014,2470.053,2020-12-26T14:29:24Z
2020-12-26T12:31:27Z,42.805,6.029,13.3007,4.60006,2470.04,2020-12-26T14:32:27Z
2020-12-26T12:34:30Z,42.805,6.029,13.2998,4.59997,2470.063,2020-12-26T14:35:30Z
2020-12-26T12:37:33Z,42.805,6.029,13.3006,4.60000,2470.063,2020-12-26T14:38:33Z
2020-12-26T12:40:37Z,42.805,6.029,13.2993,4.60001,2470.063,2020-12-26T14:41:36Z
2020-12-26T12:43:40Z,42.805,6.029,13.2996,4.60007,2470.063,2020-12-26T14:44:40Z
2020-12-26T12:46:43Z,42.805,6.029,13.3015,4.60000,2470.077,2020-12-26T14:47:43Z
2020-12-26T12:49:46Z,42.805,6.029,13.3000,4.60016,2470.063,2020-12-26T14:50:46Z
2020-12-26T12:52:49Z,42.805,6.029,13.3011,4.60010,2470.063,2020-12-26T14:53:49Z
2020-12-26T12:55:52Z,42.805,6.029,13.3013,4.60000,2470.053,2020-12-26T14:56:52Z
2020-12-26T12:58:55Z,42.805,6.029,13.3000,4.60012,2470.063,2020-12-26T14:59:55Z
2020-12-26T13:01:58Z,42.805,6.029,13.3000,4.60007,2470.063,2020-12-26T15:02:58Z
2020-12-26T13:05:02Z,42.805,6.029,13.3000,4.60006,2470.077,2020-12-26T15:06:01Z
2020-12-26T13:08:05Z,42.805,6.029,13.3006,4.60013,2470.087,2020-12-26T15:09:05Z
2020-12-26T13:11:08Z,42.805,6.029,13.3004,4.60011,2470.063,2020-12-26T15:12:08Z
2020-12-26T13:14:11Z,42.805,6.029,13.3000,4.60006,2470.063,2020-12-26T15:15:11Z
2020-12-26T13:17:14Z,42.805,6.029,13.3009,4.60010,2470.1,2020-12-26T15:18:14Z
2020-12-26T13:20:17Z,42.805,6.029,13.3006,4.60007,2470.063,2020-12-26T15:21:17Z
2020-12-26T13:23:20Z,42.805,6.029,13.3010,4.60014,2470.087,2020-12-26T15:24:20Z
2020-12-26T13:26:23Z,42.805,6.029,13.2999,4.60002,2470.077,2020-12-26T15:27:23Z
2020-12-26T13:29:27Z,42.805,6.029,13.3006,4.59996,2470.077,2020-12-26T15:30:26Z
2020-12-26T13:32:30Z,42.805,6.029,13.3012,4.60004,2470.077,2020-12-26T15:33:30Z
2020-12-26T13:35:33Z,42.805,6.029,13.3002,4.60001,2470.1,2020-12-26T15:36:33Z
2020-12-26T13:38:36Z,42.805,6.029,13.3005,4.60003,2470.063,2020-12-26T15:39:36Z
2020-12-26T13:41:39Z,42.805,6.029,13.2993,4.59999,2470.063,2020-12-26T15:42:39Z
2020-12-26T13:44:42Z,42.805,6.029,13.2999,4.60005,2470.077,2020-12-26T15:45:42Z
2020-12-26T13:47:45Z,42.805,6.029,13.3008,4.60002,2470.087,2020-12-26T15:48:45Z
2020-12-26T13:50:48Z,42.805,6.029,13.3015,4.60003,2470.063,2020-12-26T15:51:48Z
2020-12-26T13:53:52Z,42.805,6.029,13.3004,4.60013,2470.077,2020-12-26T15:54:51Z
2020-12-26T13:56:55Z,42.805,6.029,13.3010,4.60014,2470.063,2020-12-26T15:57:55Z
2020-12-26T13:59:58Z,42.805,6.029,13.3018,4.60002,2470.063,2020-12-26T16:00:58Z
2020-12-26T14:03:01Z,42.805,6.029,13.3000,4.59999,2470.087,2020-12-26T16:04:01Z
2020-12-26T14:06:04Z,42.805,6.029,13.3000,4.60011,2470.063,2020-12-26T16:07:04Z
2020-12-26T14:09:07Z,42.805,6.029,13.3008,4.60003,2470.087,2020-12-26T16:10:07Z
2020-12-26T14:12:10Z,42.805,6.029,13.3008,4.60001,2470.1,2020-12-26T16:13:10Z
2020-12-26T14:15:14Z,42.805,6.029,13.2999,4.59999,2470.087,2020-12-26T16:16:13Z
2020-12-26T14:18:17Z,42.805,6.029,13.3002,4.60003,2470.1,2020-12-26T16:19:16Z
2020-12-26T14:21:20Z,42.805,6.029,13.3000,4.59998,2470.087,2020-12-26T16:22:20Z
2020-12-26T14:24:23Z,42.805,6.029,13.3004,4.59999,2470.087,2020-12-26T16:25:23Z
2020-12-26T14:27:26Z,42.805,6.029,13.3005,4.60009,2470.11,2020-12-26T16:28:26Z
2020-12-26T14:30:29Z,42.805,6.029,13.2993,4.60001,2470.1,2020-12-26T16:31:29Z
2020-12-26T14:33:32Z,42.805,6.029,13.3002,4.60001,2470.133,2020-12-26T16:34:32Z
2020-12-26T14:36:35Z,42.805,6.029,13.3004,4.60004,2470.1,2020-12-26T16:37:35Z
2020-12-26T14:39:39Z,42.805,6.029,13.3008,4.60003,2470.124,2020-12-26T16:40:38Z
2020-12-26T14:42:42Z,42.805,6.029,13.3015,4.59994,2470.087,2020-12-26T16:43:41Z
2020-12-26T14:45:45Z,42.805,6.029,13.3002,4.59999,2470.11,2020-12-26T16:46:45Z
2020-12-26T14:48:48Z,42.805,6.029,13.2998,4.60011,2470.087,2020-12-26T16:49:48Z
2020-12-26T14:51:51Z,42.805,6.029,13.3001,4.60005,2470.1,2020-12-26T16:52:51Z
2020-12-26T14:54:54Z,42.805,6.029,13.3004,4.60007,2470.087,2020-12-26T16:55:54Z
2020-12-26T14:57:57Z,42.805,6.029,13.2999,4.59998,2470.147,2020-12-26T16:58:57Z
2020-12-26T15:01:00Z,42.805,6.029,13.3008,4.60008,2470.124,2020-12-26T17:02:00Z